Вернуться в каталог

STARLINK-32170

АктивенСвязьVLEO
NORAD 60591·PAYLOAD·🇺🇸 United States

Запущен Aug 20, 2024 с Cape Canaveral Space Force Station

Loading…

Ближайшие Пролёты (ближайшие 24 часа)

TLE

СвежийSource: CelesTrak SupGP

Эпоха: Sep 14, 2026, 22:39 UTC

1 60591C 24150J   26257.94423611 -.00072855  00000+0 -21523-2 0  2575
2 60591  53.1576 147.3340 0001347  96.8078 347.9414 15.34430777    19

Отслеживайте STARLINK-32170 в реальном времени с AllMySat

Download on the App Store